Regional Weather Roundup
Issued by NWS

Home | Current Version | Previous Version | Text Only | Print | Product List | Glossary Off
Versions: 1 2 3 4 5 6 7 8 9 10 11 12 13 14 15 16 17 18 19 20 21 22 23 24 25 26 27 28 29 30 31 32 33 34 35 36 37 38 39 40 41 42 43 44 45 46 47 48 49 50

000
ASUS45 KCYS 260710
RWRWY

WYOMING REGIONAL WEATHER ROUNDUP
NATIONAL WEATHER SERVICE CHEYENNE WY
100 AM MDT TUE MAY 26 2015

NOTE:  "FAIR" INDICATES FEW OR NO CLOUDS BELOW 12,000 FEET
WITH NO SIGNIFICANT WEATHER AND/OR OBSTRUCTIONS TO VISIBILITY.

WYZ001-260800-
YELLOWSTONE NATIONAL PARK

CITY           SKY/WX    TMP DP  RH WIND       PRES   REMARKS
LK YELLOWSTONE   N/A     36  35  96 CALM      30.10R
W YELLOWSTONE  NOT AVBL

$$
WYZ002>013-054>058-071-098>099-260800-
NORTHERN WYOMING

CITY           SKY/WX    TMP DP  RH WIND       PRES   REMARKS
JACKSON        FAIR      45  43  93 CALM      30.05S
CODY           FAIR      52  43  71 SW7       29.94F
GREYBULL       FAIR      53  47  79 SE5       29.92F
WORLAND        FAIR      50  46  86 SE5       29.93S
SHERIDAN       FAIR      46  43  89 S3        29.93R
BUFFALO        FAIR      46  42  86 SW6       29.96S
GILLETTE       FAIR      45  44  97 S9        29.95S
HULETT         FAIR      45  43  93 CALM      29.97S
NEWCASTLE      PTSUNNY   52  48  87 SE6       29.97S

$$
WYZ014>020-022>026-101>103-260800-
CENTRAL WYOMING

CITY           SKY/WX    TMP DP  RH WIND       PRES   REMARKS
BIG PINEY      FAIR      39  36  89 N7        30.06S WCI  34
PINEDALE       FAIR      37  37 100 CALM      30.07F
DUBOIS         FAIR      41  36  81 NW8       30.05S
LANDER         FAIR      46  39  76 W9        29.97F
RIVERTON       FAIR      45  42  89 NW6       29.99S
CASPER         FAIR      46  44  93 CALM      29.99F
DOUGLAS        FAIR      46  44  93 CALM      29.99S

$$
WYZ021-027>030-104>119-260800-
SOUTHERN WYOMING

CITY           SKY/WX    TMP DP  RH WIND       PRES   REMARKS
EVANSTON       FAIR      43  38  82 SW6       30.09R
KEMMERER       FAIR      41  37  87 CALM      30.09R
FORT BRIDGER   MOSUNNY   45  39  81 W9        30.11R
ROCK SPRINGS   FAIR      44  40  85 SW9       30.05F
DIXON          FAIR      41  39  92 CALM      30.10S
RAWLINS        FAIR      40  38  93 CALM      30.06S
SARATOGA       CLOUDY    41  39  93 MISG      30.08S
LARAMIE        FAIR      37  36  96 S8        30.06F WCI  31
CHEYENNE       FAIR      44  39  82 W6        30.03S
TORRINGTON     MOCLDY    48  47  96 CALM      29.96S
PINE BLUFFS    PTSUNNY   43  43 100 W5        30.00F

$$



USA.gov is the U.S. government's official web portal to all federal, state and local government web resources and services.